Date String (YYYY-MM-DD hh:mm:ss) UTC,Instrument flags,absolute air pressure of the measurement (hPa),sample flow rate (lpm),inlet stack bypass flow (lpm),air temperature of the measurement (°C),ambient temperature measured by the external sensor (°C),aerosol sample conditioner tube jacket temperature (°C),OPC LED temperature (°C),internal box temperature (°C),relative humidity of the measurement (%),span deviation,mass concentration of particles derived from Lorenz-Mie calculation of OPC scattering (μg/m³),mass concentration of particles derived from Lorenz-Mie calculation of OPC scattering (μg/m³),mass concentration of particles derived from Lorenz-Mie calculation of OPC scattering (μg/m³)
DateTimeUTC,F1_M11,P_M11,Q1_M11,Q2_M11,T1_M11,T2_M11,T3_M11,T4_M11,T5_M11,U1_M11,ZSPAN_M11,X2_M11,X0_M11,X1_M11
2023-07-17 10:00:00,SystemResetWarning,0833.6,5.01,000.00,029.6,025.4,000.0,037.9,030.9,21.5,0000.3,0006.61,0013.91,0006.09
2023-07-17 10:01:00,SystemResetWarning,0833.6,5.01,000.00,029.5,025.4,000.0,037.8,030.6,21.7,0000.5,0006.60,0013.35,0006.07
2023-07-17 10:02:00,SystemResetWarning,0833.7,5.00,000.00,029.4,025.7,000.0,037.9,030.6,21.8,0000.5,0006.60,0012.40,0006.08
2023-07-17 10:03:00,SystemResetWarning,0833.6,4.99,000.00,029.3,026.1,000.0,037.9,030.6,21.9,0000.5,0006.62,0012.13,0006.09
2023-07-17 10:04:00,SystemResetWarning,0833.6,5.00,000.00,029.3,026.5,000.0,037.9,030.7,21.9,0001.1,0006.63,0012.01,0006.09
2023-07-17 10:05:00,SystemResetWarning,0833.6,5.00,000.00,029.3,026.8,000.0,037.9,030.8,20.8,0001.6,0006.61,0011.94,0006.09
2023-07-17 10:06:00,SystemResetWarning,0833.6,5.00,000.00,029.3,027.1,000.0,037.9,030.8,19.7,0001.6,0006.63,0011.82,0006.09
2023-07-17 10:07:00,SystemResetWarning,0833.6,4.99,000.00,029.3,027.4,000.0,037.9,030.9,19.8,0001.2,0006.66,0011.88,0006.11
2023-07-17 10:08:00,SystemResetWarning,0833.6,4.99,000.00,029.4,027.6,000.0,037.9,030.9,19.5,0001.3,0006.69,0012.02,0006.13
2023-07-17 10:09:00,SystemResetWarning,0833.6,5.00,000.00,029.4,027.7,000.0,037.9,030.9,18.5,0001.0,0006.65,0012.21,0006.13
2023-07-17 10:10:00,SystemResetWarning,0833.6,5.01,000.00,029.4,027.9,000.0,037.9,031.0,18.7,0000.9,0006.66,0011.01,0006.13
2023-07-17 10:11:00,SystemResetWarning,0833.6,5.01,000.00,029.4,028.0,000.0,037.9,031.0,18.5,0001.4,0006.70,0011.05,0006.14
2023-07-17 10:12:00,SystemResetWarning,0833.6,4.99,000.00,029.5,028.1,000.0,037.9,031.1,18.5,0001.4,0006.75,0011.20,0006.17
2023-07-17 10:13:00,SystemResetWarning,0833.6,4.99,000.00,029.5,028.2,000.0,037.9,031.1,18.1,0001.1,0006.78,0011.30,0006.17
2023-07-17 10:14:00,SystemResetWarning,0833.6,4.99,000.00,029.5,028.3,000.0,037.9,031.1,17.7,0000.9,0006.77,0011.63,0006.17
2023-07-17 10:15:00,SystemResetWarning,0833.6,5.00,000.00,029.5,028.3,000.0,038.0,031.2,17.5,0000.5,0006.74,0011.34,0006.16
2023-07-17 10:16:00,SystemResetWarning,0833.6,5.01,000.00,029.6,028.4,000.0,038.0,031.2,17.5,0000.4,0006.68,0011.20,0006.10
2023-07-17 10:17:00,SystemResetWarning,0833.6,5.01,000.00,029.6,028.4,000.0,038.0,031.2,17.7,0000.2,0006.58,0011.07,0006.00
2023-07-17 10:18:00,SystemResetWarning,0833.6,5.01,000.00,029.6,028.5,000.0,038.0,031.2,18.0,0000.3,0006.48,0010.89,0005.91
2023-07-17 10:19:00,SystemResetWarning,0833.6,5.00,000.00,029.7,028.5,000.0,038.0,031.3,18.2,0000.1,0006.38,0010.66,0005.80
2023-07-17 10:20:00,SystemResetWarning,0833.6,5.01,000.00,029.7,028.6,000.0,038.1,031.3,18.3,0000.3,0006.23,0010.13,0005.65
2023-07-17 10:21:00,SystemResetWarning,0833.6,5.00,000.00,029.7,028.4,000.0,038.1,031.3,18.6,0000.4,0006.05,0010.35,0005.52
2023-07-17 10:22:00,SystemResetWarning,0833.6,4.98,000.00,029.7,026.5,000.0,038.0,031.2,18.7,-000.1,0005.84,0010.01,0005.39
2023-07-17 10:23:00,SystemResetWarning,0833.4,5.01,000.00,029.6,025.4,000.0,037.9,030.9,18.8,-000.6,0005.64,0009.81,0005.24
2023-07-17 10:24:00,SystemResetWarning,0833.5,5.01,000.00,029.5,025.5,000.0,037.8,030.7,18.5,-000.4,0005.45,0010.02,0005.07
2023-07-17 10:25:00,SystemResetWarning,0833.4,5.00,000.00,029.4,025.8,000.0,037.9,030.6,18.7,-000.0,0005.26,0010.26,0004.89
2023-07-17 10:26:00,SystemResetWarning,0833.5,5.00,000.00,029.4,026.2,000.0,037.9,030.7,18.8,0000.2,0005.11,0010.05,0004.74
2023-07-17 10:27:00,SystemResetWarning,0833.4,5.00,000.00,029.4,026.5,000.0,037.9,030.7,18.7,-000.1,0004.97,0009.97,0004.61
2023-07-17 10:28:00,SystemResetWarning,0833.4,5.00,000.00,029.4,026.9,000.0,037.9,030.8,18.9,-000.5,0004.91,0010.12,0004.53
2023-07-17 10:29:00,SystemResetWarning,0833.5,5.00,000.00,029.4,027.1,000.0,037.9,030.8,19.0,-000.7,0004.84,0010.18,0004.43
2023-07-17 10:30:00,SystemResetWarning,0833.4,4.99,000.00,029.4,027.4,000.0,037.9,030.9,19.2,-001.1,0004.74,0010.12,0004.35
2023-07-17 10:31:00,SystemResetWarning,0833.4,4.99,000.00,029.4,027.6,000.0,037.9,030.9,19.1,-000.6,0004.73,0010.21,0004.32
2023-07-17 10:32:00,SystemResetWarning,0833.4,5.00,000.00,029.4,027.7,000.0,037.9,031.0,19.0,-001.3,0004.70,0010.10,0004.28
2023-07-17 10:33:00,SystemResetWarning,0833.4,5.00,000.00,029.4,027.9,000.0,037.9,031.0,19.1,-000.9,0004.68,0010.24,0004.25
2023-07-17 10:34:00,SystemResetWarning,0833.4,5.00,000.00,029.4,028.0,000.0,037.9,031.0,19.3,0000.0,0004.64,0010.07,0004.22
2023-07-17 10:35:00,SystemResetWarning,0833.4,5.00,000.00,029.5,028.1,000.0,037.9,031.1,19.5,-000.1,0004.65,0009.70,0004.22
2023-07-17 10:36:00,SystemResetWarning,0833.4,5.01,000.00,029.5,028.1,000.0,037.9,031.1,19.7,-000.1,0004.69,0008.80,0004.27
2023-07-17 10:37:00,SystemResetWarning,0833.5,5.00,000.00,029.5,028.2,000.0,037.9,031.1,19.8,-000.1,0004.72,0008.99,0004.31
2023-07-17 10:38:00,SystemResetWarning,0833.5,4.99,000.00,029.6,028.3,000.0,038.0,031.1,19.9,-000.6,0004.76,0009.53,0004.36
2023-07-17 10:39:00,SystemResetWarning,0833.5,5.00,000.00,029.6,028.3,000.0,038.0,031.2,20.0,-000.3,0004.81,0009.52,0004.43
2023-07-17 10:40:00,SystemResetWarning,0833.5,4.99,000.00,029.6,028.4,000.0,038.0,031.2,20.1,-000.5,0004.83,0009.44,0004.49
2023-07-17 10:41:00,SystemResetWarning,0833.5,5.00,000.00,029.6,028.4,000.0,038.0,031.2,19.8,0000.3,0004.90,0009.44,0004.56
2023-07-17 10:42:00,SystemResetWarning,0833.5,5.00,000.00,029.6,028.4,000.0,038.0,031.3,19.8,0000.9,0004.96,0009.74,0004.62
2023-07-17 10:43:00,SystemResetWarning,0833.5,5.00,000.00,029.7,028.5,000.0,038.1,031.3,19.8,0001.3,0005.05,0010.17,0004.69
2023-07-17 10:44:00,SystemResetWarning,0833.5,5.00,000.00,029.7,028.5,000.0,038.1,031.3,19.6,0001.2,0005.12,0010.04,0004.76
2023-07-17 10:45:00,SystemResetWarning,0833.6,5.00,000.00,029.7,028.5,000.0,038.1,031.3,19.8,0001.0,0005.21,0010.94,0004.82
2023-07-17 10:46:00,SystemResetWarning,0833.5,4.99,000.00,029.7,027.7,000.0,038.1,031.3,19.7,0000.4,0005.31,0011.81,0004.90
2023-07-17 10:47:00,SystemResetWarning,0833.4,5.01,000.00,029.7,025.7,000.0,037.9,031.0,19.4,-000.3,0005.37,0012.06,0004.97
2023-07-17 10:48:00,SystemResetWarning,0833.4,5.01,000.00,029.6,025.3,000.0,037.9,030.8,18.9,-000.0,0005.47,0012.85,0005.06
2023-07-17 10:49:00,SystemResetWarning,0833.4,4.98,000.00,029.5,025.5,000.0,037.9,030.6,18.8,-000.0,0005.57,0012.36,0005.14
2023-07-17 10:50:00,SystemResetWarning,0833.4,5.00,000.00,029.4,025.9,000.0,037.9,030.6,18.6,0000.0,0005.63,0012.27,0005.22
2023-07-17 10:51:00,SystemResetWarning,0833.5,5.01,000.00,029.4,026.3,000.0,037.9,030.7,18.7,0000.8,0005.70,0012.41,0005.28
2023-07-17 10:52:00,SystemResetWarning,0833.4,5.01,000.00,029.3,026.6,000.0,037.9,030.7,18.7,0001.1,0005.80,0012.75,0005.34
2023-07-17 10:53:00,SystemResetWarning,0833.4,5.00,000.00,029.3,026.9,000.0,037.9,030.8,18.6,0000.9,0005.88,0012.86,0005.41
2023-07-17 10:54:00,SystemResetWarning,0833.4,5.00,000.00,029.3,027.2,000.0,037.9,030.8,18.5,0000.6,0005.93,0012.29,0005.46
2023-07-17 10:55:00,SystemResetWarning,0833.4,5.00,000.00,029.4,027.4,000.0,037.9,030.9,18.2,0000.6,0006.02,0012.42,0005.52
2023-07-17 10:56:00,SystemResetWarning,0833.5,5.00,000.00,029.4,027.6,000.0,037.9,030.9,17.8,0000.7,0006.07,0011.73,0005.58
2023-07-17 10:57:00,SystemResetWarning,0833.5,5.00,000.00,029.4,027.7,000.0,037.9,030.9,18.0,0000.8,0006.09,0011.01,0005.60
2023-07-17 10:58:00,SystemResetWarning,0833.4,5.00,000.00,029.4,027.9,000.0,037.9,031.0,18.1,0001.1,0006.10,0010.96,0005.59
2023-07-17 10:59:00,SystemResetWarning,0833.4,5.00,000.00,029.4,028.0,000.0,037.9,031.0,18.0,0000.5,0006.03,0010.19,0005.52
